Weather History for Atwater, CA

Change the Weather History Date:

Saturday, November 3, 2012

  Actual Average (KMCE) Record (KMCE)
Temperature  
Mean Temperature 58 °F 57 °F  
Max Temperature 75 °F 70 °F 82 °F (2010)
Min Temperature 42 °F 44 °F 37 °F (2003)
Degree Days  
Heating Degree Days 6    
Month to date heating degree days  
Since 1 July heating degree days  
Cooling Degree Days 0    
Month to date cooling degree days  
Year to date cooling degree days  
Growing Degree Days 8 (Base 50)    
Moisture  
Dew Point 50 °F    
Average Humidity 92    
Maximum Humidity 100    
Minimum Humidity 44    
Precipitation  
Precipitation 0.00 in 0.05 in 0.29 in (2004)
Month to date precipitation 0.15  
Year to date precipitation 9.95  
Since 1 July precipitation 1.27  
Snow  
Snow 0.00 in - - ()
Month to date snowfall  
Since 1 July snowfall  
Since 1 September snowfall  
Snow Depth -    
Sea Level Pressure  
Sea Level Pressure 30.10 in    
Wind  
Wind Speed 2 mph (North)    
Max Wind Speed 9 mph    
Max Gust Speed -    
Visibility 7 miles    
Events Fog    
T = Trace of Precipitation, MM = Missing Value Source: NWS Daily Summary

Daily Weather History Graph

Daily Weather History Graph

Search for Another Location

Airport:

Trip Planner

Search our weather history database for the weather conditions in past years. The results will help you decide how hot, cold, wet, or windy it might be!

Date:

Astronomy

Nov. 03, 2012 Rise Set
Actual Time 7:29 AM PDT 6:01 PM PDT
Civil Twilight 7:02 AM PDT 6:28 PM PDT
Nautical Twilight 6:31 AM PDT 6:59 PM PDT
Astronomical Twilight 6:00 AM PDT 7:30 PM PDT
Moon 9:49 PM PDT (11/3) 11:35 AM PDT (11/3)
Length of Visible Light 11h 26m
Length of Day
10h 31m
Waning Gibbous, 79% of the Moon is Illuminated
Nov 3
Waning Gibbous
Nov 6
Last Quarter
Nov 13
New
Nov 20
First Quarter
Nov 28
Full

Hourly Weather History & Observations

Time (PDT) Temp. Windchill Dew Point Humidity Pressure Visibility Wind Dir Wind Speed Gust Speed Precip Events Conditions
12:15 AM 53.6 °F - 53.6 °F 100% 30.07 in 10.0 mi North - - N/A   Clear
12:35 AM 51.8 °F - 51.8 °F 100% 30.07 in 10.0 mi Calm Calm - N/A   Clear
12:55 AM 50.0 °F - 50.0 °F 100% 30.07 in 5.0 mi North - - N/A   Clear
1:15 AM 50.0 °F - 50.0 °F 100% 30.08 in 4.0 mi North - - N/A   Clear
1:35 AM 51.8 °F - 51.8 °F 100% 30.08 in 10.0 mi North - - N/A   Clear
1:55 AM 50.0 °F - 50.0 °F 100% 30.08 in 7.0 mi North - - N/A   Clear
2:15 AM 50.0 °F - 50.0 °F 100% 30.07 in 5.0 mi Calm Calm - N/A   Clear
2:35 AM 51.8 °F - 51.8 °F 100% 30.07 in 7.0 mi North - - N/A   Clear
2:55 AM 48.2 °F - 48.2 °F 100% 30.08 in 8.0 mi North 3.5 mph - N/A   Clear
3:15 AM 48.2 °F - 48.2 °F 100% 30.08 in 4.0 mi Calm Calm - N/A   Clear
3:35 AM 46.4 °F 45.2 °F 46.4 °F 100% 30.08 in 3.0 mi NE 3.5 mph - N/A   Clear
3:55 AM 46.4 °F - 46.4 °F 100% 30.08 in 3.0 mi Calm Calm - N/A   Clear
4:15 AM 46.4 °F 45.2 °F 46.4 °F 100% 30.07 in 5.0 mi NE 3.5 mph - N/A   Clear
4:35 AM 46.4 °F 45.2 °F 46.4 °F 100% 30.08 in 3.0 mi East 3.5 mph - N/A   Clear
4:55 AM 46.4 °F - 46.4 °F 100% 30.08 in 1.5 mi Calm Calm - N/A   Clear
5:15 AM 48.2 °F - 48.2 °F 100% 30.08 in 7.0 mi NNW 3.5 mph - N/A   Clear
5:35 AM 48.2 °F - 48.2 °F 100% 30.09 in 8.0 mi NNW 3.5 mph - N/A   Clear
5:55 AM 46.4 °F - 46.4 °F 100% 30.10 in 2.0 mi Calm Calm - N/A   Clear
6:15 AM 44.6 °F - 44.6 °F 100% 30.10 in 0.2 mi Calm Calm - N/A   Unknown
6:35 AM 42.8 °F - 42.8 °F 100% 30.10 in 0.2 mi Calm Calm - N/A   Unknown
6:45 AM 42.8 °F - 42.8 °F 100% 30.10 in 2.5 mi Calm Calm - N/A   Clear
6:55 AM 42.8 °F - 42.8 °F 100% 30.10 in 3.0 mi Calm Calm - N/A   Clear
7:45 AM 42.8 °F - 42.8 °F 100% 30.13 in 0.2 mi Calm Calm - N/A Fog Fog
8:13 AM 46.4 °F - 46.4 °F 100% 30.13 in 1.0 mi Calm Calm - N/A Fog Fog
8:45 AM 48.2 °F - 48.2 °F 100% 30.15 in 3.0 mi Calm Calm - N/A   Scattered Clouds
9:45 AM 55.4 °F - 55.4 °F 100% 30.16 in 5.0 mi Calm Calm - N/A   Haze
10:45 AM 62.6 °F - 60.8 °F 94% 30.16 in 10.0 mi Calm Calm - N/A   Clear
11:45 AM 68.0 °F - 55.4 °F 64% 30.15 in 10.0 mi Calm Calm - N/A   Clear
12:45 PM 71.6 °F - 53.6 °F 53% 30.12 in 10.0 mi Calm Calm - N/A   Clear
2:45 PM 75.2 °F - 51.8 °F 44% 30.09 in 10.0 mi NW 8.1 mph - N/A   Clear
3:45 PM 75.2 °F - 51.8 °F 44% 30.09 in 10.0 mi NNW 9.2 mph - N/A   Clear
4:45 PM 73.4 °F - 51.8 °F 47% 30.09 in 10.0 mi NNW 9.2 mph - N/A   Clear
5:50 PM 69.8 °F - 50.0 °F 49% 30.09 in 10.0 mi NNW 5.8 mph - N/A   Clear
6:50 PM 64.4 °F - 53.6 °F 68% 30.10 in 10.0 mi NNW 5.8 mph - N/A   Clear
7:45 PM 60.8 °F - 53.6 °F 77% 30.11 in 10.0 mi NW 4.6 mph - N/A   Clear
8:45 PM 57.2 °F - 53.6 °F 88% 30.12 in 10.0 mi NNW 4.6 mph - N/A   Clear
9:15 PM 57.2 °F - 55.4 °F 94% 30.12 in 10.0 mi Calm Calm - N/A   Clear
9:35 PM 55.4 °F - 55.4 °F 100% 30.13 in 10.0 mi Calm Calm - N/A   Clear
9:55 PM 55.4 °F - 55.4 °F 100% 30.13 in 10.0 mi Calm Calm - N/A   Clear
10:15 PM 55.4 °F - 55.4 °F 100% 30.13 in 10.0 mi Calm Calm - N/A   Clear
10:35 PM 53.6 °F - 53.6 °F 100% 30.14 in 10.0 mi Calm Calm - N/A   Clear
10:55 PM 51.8 °F - 51.8 °F 100% 30.13 in 10.0 mi North - - N/A   Clear
11:15 PM 51.8 °F - 51.8 °F 100% 30.14 in 10.0 mi North - - N/A   Clear
11:35 PM 51.8 °F - 51.8 °F 100% 30.14 in 10.0 mi Calm Calm - N/A   Clear
11:55 PM 50.0 °F - 50.0 °F 100% 30.14 in 10.0 mi Calm Calm - N/A   Clear